TimeCET,TemperatureF,Dew PointF,Humidity,Sea Level PressureIn,VisibilityMPH,Wind Direction,Wind SpeedMPH,Gust SpeedMPH,PrecipitationIn,Events,Conditions,WindDirDegrees,DateUTC
12:15 AM,26.6,15.8,64,29.95,-9999.0,North,15.7,-,N/A,,Clear,360,2012-12-08 23:15:00
12:45 AM,26.6,15.8,64,29.92,-9999.0,North,13.4,-,N/A,,Clear,360,2012-12-08 23:45:00
1:15 AM,28.4,14.0,55,29.92,-9999.0,North,15.7,-,N/A,,Clear,360,2012-12-09 00:15:00
1:45 AM,26.6,15.8,64,29.95,-9999.0,North,15.7,-,N/A,,Clear,360,2012-12-09 00:45:00
2:15 AM,26.6,15.8,64,29.95,-9999.0,North,15.7,-,N/A,,Clear,360,2012-12-09 01:15:00
2:45 AM,26.6,15.8,64,29.95,-9999.0,North,13.4,-,N/A,,Clear,360,2012-12-09 01:45:00
3:15 AM,26.6,15.8,64,29.95,-9999.0,North,13.4,-,N/A,,Clear,360,2012-12-09 02:15:00
3:45 AM,26.6,15.8,64,29.92,-9999.0,North,13.4,-,N/A,,Clear,360,2012-12-09 02:45:00
4:15 AM,26.6,15.8,64,29.92,-9999.0,North,13.4,-,N/A,,Clear,350,2012-12-09 03:15:00
4:45 AM,26.6,15.8,64,29.92,-9999.0,North,13.4,-,N/A,,Clear,350,2012-12-09 03:45:00
5:15 AM,26.6,14.0,59,29.92,-9999.0,North,13.4,-,N/A,,Clear,350,2012-12-09 04:15:00
5:45 AM,-9999,-9999,N/A,-9999,-9999.0,North,13.4,-,N/A,,Clear,350,2012-12-09 04:45:00
6:15 AM,28.4,14.0,55,29.92,-9999.0,NNW,11.2,-,N/A,,Clear,340,2012-12-09 05:15:00
6:45 AM,26.6,15.8,64,29.95,-9999.0,NNW,11.2,-,N/A,,Clear,340,2012-12-09 05:45:00
7:15 AM,26.6,15.8,64,29.95,-9999.0,NNW,11.2,-,N/A,,Clear,340,2012-12-09 06:15:00
7:45 AM,28.4,14.0,55,29.95,-9999.0,NNW,11.2,-,N/A,,Clear,340,2012-12-09 06:45:00
8:15 AM,28.4,15.8,59,29.95,-9999.0,NNW,11.2,-,N/A,,Clear,340,2012-12-09 07:15:00
8:45 AM,-9999,-9999,N/A,-9999,-9999.0,NNW,11.2,-,N/A,,Clear,330,2012-12-09 07:45:00
9:15 AM,28.4,14.0,55,29.95,-9999.0,NNW,8.9,-,N/A,,Clear,330,2012-12-09 08:15:00
9:45 AM,28.4,17.6,64,29.95,-9999.0,NW,8.9,-,N/A,,Clear,320,2012-12-09 08:45:00
10:15 AM,28.4,17.6,64,29.95,-9999.0,NW,11.2,-,N/A,,Clear,320,2012-12-09 09:15:00
10:45 AM,28.4,19.4,69,29.95,-9999.0,NW,11.2,-,N/A,,Clear,310,2012-12-09 09:45:00
11:15 AM,28.4,17.6,64,29.95,-9999.0,NW,13.4,-,N/A,,Clear,310,2012-12-09 10:15:00
11:45 AM,-9999,-9999,N/A,-9999,-9999.0,NW,11.2,-,N/A,,Clear,320,2012-12-09 10:45:00
12:45 PM,28.4,19.4,69,29.92,-9999.0,NW,13.4,-,N/A,,Clear,310,2012-12-09 11:45:00
1:15 PM,30.2,17.6,60,29.92,-9999.0,NW,13.4,-,N/A,,Clear,310,2012-12-09 12:15:00
1:45 PM,28.4,17.6,64,29.92,-9999.0,NW,13.4,-,N/A,,Clear,310,2012-12-09 12:45:00
2:15 PM,28.4,19.4,69,29.92,-9999.0,WNW,15.7,-,N/A,,Clear,300,2012-12-09 13:15:00
2:45 PM,-9999,-9999,N/A,-9999,-9999.0,NW,11.2,-,N/A,,Clear,310,2012-12-09 13:45:00
3:15 PM,26.6,19.4,74,29.95,-9999.0,WNW,13.4,-,N/A,,Clear,290,2012-12-09 14:15:00
3:45 PM,26.6,19.4,74,29.92,-9999.0,WNW,13.4,-,N/A,,Clear,290,2012-12-09 14:45:00
4:15 PM,24.8,17.6,74,29.92,-9999.0,WNW,13.4,-,N/A,,Clear,290,2012-12-09 15:15:00
4:45 PM,24.8,17.6,74,29.92,-9999.0,WNW,13.4,-,N/A,,Clear,290,2012-12-09 15:45:00
5:15 PM,24.8,15.8,69,29.92,-9999.0,WNW,13.4,-,N/A,,Clear,290,2012-12-09 16:15:00
5:45 PM,-9999,-9999,N/A,-9999,-9999.0,WNW,8.9,-,N/A,,Clear,290,2012-12-09 16:45:00
6:15 PM,23.0,15.8,74,29.95,-9999.0,West,11.2,-,N/A,,Clear,280,2012-12-09 17:15:00
6:45 PM,21.2,15.8,80,29.95,-9999.0,WNW,8.9,-,N/A,,Clear,290,2012-12-09 17:45:00
7:15 PM,21.2,14.0,74,29.95,-9999.0,West,4.5,-,N/A,,Clear,270,2012-12-09 18:15:00
7:45 PM,19.4,14.0,80,29.95,-9999.0,West,2.2,-,N/A,,Clear,270,2012-12-09 18:45:00
8:15 PM,19.4,14.0,80,29.95,-9999.0,Calm,Calm,-,N/A,,Clear,0,2012-12-09 19:15:00
8:45 PM,-9999,-9999,N/A,-9999,3.1,WSW,6.7,-,N/A,,Clear,240,2012-12-09 19:45:00
9:15 PM,15.8,12.2,86,29.95,5.0,WSW,2.2,-,N/A,,Clear,240,2012-12-09 20:15:00
9:45 PM,15.8,12.2,86,29.95,5.0,West,2.2,-,N/A,,Clear,260,2012-12-09 20:45:00
10:15 PM,14.0,10.4,86,29.95,5.0,West,4.5,-,N/A,,Clear,270,2012-12-09 21:15:00
10:45 PM,14.0,12.2,93,29.95,-9999.0,West,4.5,-,N/A,,Clear,270,2012-12-09 21:45:00
11:15 PM,14.0,10.4,86,29.95,-9999.0,ESE,6.7,-,N/A,,Clear,110,2012-12-09 22:15:00
11:45 PM,-9999,-9999,N/A,-9999,0.6,North,-9999.0,-,N/A,,Mostly Cloudy,0,2012-12-09 22:45:00